Location: West Cummington
(42.4920°N, 72.9680°W)
Time: 01:25:57
(UTC-04:00)

Daily predictions for brighter satellites

Satellite Brightness Start Highest point End
(mag) Time Altitude Azimuth Time Altitude Azimuth Time Altitude Azimuth
ALOS 2 2.7 00:06:32 59° E 00:06:53 62° ENE 00:11:14 10° N
CZ-4 R/B 3.7 00:02:36 10° NNE 00:07:24 85° WNW 00:08:08 64° SSW
Mayak -1.2 00:04:15 10° NNE 00:08:13 64° E 00:08:13 64° E
Cosmos 1408 Rocket 4.4 00:07:39 38° WSW 00:08:37 44° WNW 00:12:54 10° N
Cosmos 2082 Rocket 3.1 00:08:33 10° NW 00:13:42 35° WSW 00:14:50 32° SW
Cosmos 1833 Rocket 3.8 00:09:23 10° NW 00:14:13 30° WSW 00:15:19 28° SW
Cosmos 371 Rocket 3.2 00:10:49 10° NNW 00:15:42 78° ENE 00:16:18 66° SE
CZ-2C R/B 4.1 00:13:16 10° N 00:18:00 31° WNW 00:21:06 18° WSW
Cosmos 2058 3.7 00:17:53 41° W 00:18:19 43° WNW 00:22:16 10° N
Cosmos 1515 Rocket 3.5 00:14:17 10° NNW 00:18:42 71° W 00:18:53 69° WSW
Cosmos 2151 3.3 00:18:32 53° W 00:18:52 55° W 00:23:02 10° N
BREEZE-M R/B 4.2 00:17:30 10° WNW 00:23:10 62° SW 00:25:12 43° SSE
H-2A R/B 2.3 00:23:20 54° ENE 00:23:23 54° ENE 00:27:24 10° N
Timation 2 Rocket 4.4 00:17:54 10° NNW 00:24:35 65° ENE 00:27:25 37° SE
Cosmos 1869 3.4 00:21:34 10° NNW 00:25:18 71° NW 00:25:18 71° NW
Meteor 2-14 Rocket 4.3 00:19:44 10° N 00:25:49 82° W 00:27:22 53° S
In-Cosmos 22 Rocket 4.3 00:29:24 49° ESE 00:30:06 52° E 00:35:20 10° NNE
Cosmos 1943 Rocket 2.7 00:30:13 41° ESE 00:30:33 42° ESE 00:35:46 10° NE
Cosmos 1455 4.4 00:31:38 10° NW 00:34:02 17° W 00:34:02 17° W
CZ-4B R/B 3.4 00:29:51 10° NNE 00:35:10 81° ESE 00:35:58 64° S
Cosmos 2263 4.5 00:39:57 46° ESE 00:40:26 48° ESE 00:45:48 10° NE
Cosmos 332 Rocket 4.1 00:40:44 10° NNW 00:45:30 52° WSW 00:45:40 52° WSW
Cosmos 2098 Rocket 4.4 00:40:07 10° N 00:47:28 66° E 00:49:40 43° SE
deb Chang Zheng 4 3.7 00:44:21 10° NNE 00:48:38 61° E 00:48:38 61° E
Meteor 2-8 Rocket 4.4 00:48:10 54° S 00:49:40 80° E 00:55:50 10° N
ADEOS Rocket 3.4 00:50:15 10° N 00:56:07 58° WNW 00:58:38 36° SW
Cosmos 1140 Rocket 3.9 00:55:09 45° WSW 00:56:19 55° WNW 01:01:23 10° NNE
Cosmos 1892 3.3 00:57:28 51° NE 00:57:28 51° NE 01:00:33 10° NNE
SL-24 R/B 4.3 00:53:25 10° NNE 00:58:00 74° ESE 00:58:31 67° SSE
COSMOS 2487 4.2 01:00:40 10° NW 01:02:41 26° WNW 01:02:41 26° WNW
Cosmos 1741 Rocket 3.9 01:03:46 65° SSE 01:04:25 73° ESE 01:09:41 10° NNE
CENTAUR R/B 4.1 00:58:50 10° NW 01:05:33 29° WSW 01:07:22 27° SW
Sich 1 2.9 01:11:02 82° E 01:11:02 82° E 01:15:27 10° N
Cosmos 1805 Rocket 3.6 01:11:27 66° W 01:11:30 67° W 01:15:55 10° N
BREEZE-M DEB (TANK) 4.3 01:14:34 10° W 01:18:46 39° NNW 01:22:12 10° ENE
USA 234 3.2 01:13:02 10° NE 01:19:34 67° SE 01:21:29 46° SSW
Cosmos 2181 Rocket 4.1 01:18:53 45° SW 01:20:43 65° W 01:26:57 10° N
Cosmos 2208 Rocket 4.1 01:16:39 10° NNW 01:22:04 74° ENE 01:23:28 50° SE
Meteor 1-26 Rocket 4.3 01:17:42 10° N 01:23:24 73° ENE 01:24:51 50° SSE
CZ-4C R/B 4.3 01:24:31 34° ENE 01:24:42 34° ENE 01:28:04 10° N
Cosmos 1862 Rocket 4.4 01:20:49 10° N 01:25:06 42° ENE 01:25:53 38° ESE
Cosmos 1818 3.8 01:22:59 10° NNW 01:28:28 66° NE 01:30:47 34° SE
Lacrosse 4 Rocket 2.1 01:35:25 46° ESE 01:35:25 46° ESE 01:39:34 10° NE
Cosmos 1933 3.9 01:31:26 10° NNW 01:34:54 47° WNW 01:34:54 47° WNW
Cosmos 1707 Rocket 3.9 01:31:32 10° NNW 01:35:41 50° W 01:35:41 50° W
SL-8 Rocket 4.2 01:30:06 10° NNW 01:36:15 59° W 01:37:54 45° SW
Cosmos 1633 Rocket 3.0 01:36:22 71° WSW 01:36:33 73° W 01:41:00 10° N
Cosmos 304 Rocket 4.2 01:32:09 10° NNW 01:36:40 47° W 01:36:40 47° W
Cosmos 864 Rocket 4.4 01:30:34 10° N 01:36:51 80° W 01:38:38 49° S
Meteor 2-15 4.4 01:36:36 48° SSE 01:38:20 76° E 01:44:24 10° NNE
Cosmos 2369 Rocket 3.0 01:36:42 30° WSW 01:38:53 43° WNW 01:44:15 10° NNE
Cosmos 2218 Rocket 4.0 01:32:56 10° NNW 01:39:03 67° W 01:40:43 48° SSW
Cosmos 1782 3.8 01:37:42 10° N 01:41:25 38° ENE 01:41:56 36° E
Cosmos 1408 2.9 01:42:25 66° NE 01:42:25 66° NE 01:45:44 10° NNE
Mayak 1.3 01:41:55 10° NW 01:43:27 12° WNW 01:44:50 10° W
Cosmos 1470 Rocket 3.5 01:46:14 69° SE 01:46:38 75° E 01:51:06 10° NNE
MOS 1 Rocket 3.4 01:46:43 10° N 01:51:32 60° WNW 01:52:16 53° WSW
Cosmos 1570 Rocket 4.2 01:47:28 10° NNW 01:52:36 53° WSW 01:53:08 50° SW
Cosmos 1656 Rocket 3.6 01:51:12 53° SSW 01:52:37 83° ESE 01:58:16 10° NNE
Meteor 2-3 Rocket 3.8 01:53:55 48° SW 01:55:29 70° WNW 02:01:18 10° N
Cosmos 1825 2.1 01:58:43 77° NW 01:58:43 77° NW 02:02:19 10° N
H-2A R/B 4.3 02:00:26 12° W 02:00:26 12° W 02:01:24 10° WNW
Cosmos 2366 rocket 4.4 01:59:00 10° NNW 02:04:48 45° W 02:06:25 37° SW
Cosmos 1763 Rocket 3.3 02:01:30 10° NNW 02:06:37 86° WSW 02:07:57 50° SSE
Cosmos 1606 2.6 02:03:48 10° NNW 02:07:31 73° WNW 02:07:31 73° WNW
Cosmos 1933 Rocket 3.4 02:08:01 67° SW 02:08:31 78° W 02:12:55 10° N
Cosmos 292 Rocket 3.8 02:06:49 10° NNW 02:11:41 81° ENE 02:13:14 44° SSE
NPP 4.4 02:07:46 10° NNE 02:12:54 43° E 02:15:03 30° SSE
CZ-2D R/B 3.4 02:09:04 10° NNE 02:13:49 32° E 02:16:20 22° SE
Cosmos 540 Rocket 4.3 02:09:18 10° N 02:14:15 46° ENE 02:18:01 16° SE
Cosmos 1943 Rocket 3.5 02:11:43 20° W 02:14:25 30° NW 02:19:18 10° N
CRYOSAT 2 4.4 02:17:26 51° SSW 02:18:27 66° W 02:23:20 10° N
Nadezhda 3 Rocket 4.0 02:16:03 40° SSW 02:18:32 80° W 02:24:54 10° N
CZ-4B R/B 1.6 02:19:27 61° N 02:19:27 61° N 02:22:05 10° N
Cosmos 1862 3.9 02:18:55 42° SE 02:19:37 48° E 02:23:28 10° NNE
ARIANE 5 R/B 4.4 02:16:09 10° NE 02:19:48 20° E 02:22:47 12° SE
Cosmos 1689 Rocket 2.6 02:20:12 59° NE 02:20:12 59° NE 02:22:54 10° N
Cosmos 1184 Rocket 4.4 02:21:26 10° NNE 02:24:20 29° ENE 02:25:17 24° ESE
Cosmos 1934 Rocket 4.3 02:19:03 10° N 02:25:21 66° E 02:29:19 23° SSE
SL-16 R/B 3.0 02:21:30 16° SE 02:26:22 59° ENE 02:32:24 10° N
Spot 2 3.9 02:22:40 10° NNE 02:26:59 89° W 02:27:45 59° SSW
Cosmos 2239 Rocket 4.4 02:20:57 10° N 02:27:10 90° E 02:30:18 32° S
ATLAS 5 CENTAUR R/B 3.8 02:26:36 32° S 02:29:16 54° ESE 02:46:41 10° NE
BREEZE M DEB (TANK) 4.2 02:23:09 10° W 02:29:52 34° NNW 02:32:36 10° NE
Resurs 1-4 Rocket 2.8 02:27:17 10° NNE 02:32:26 47° E 02:35:01 27° SSE
Cosmos 1814 Rocket 4.2 02:28:54 10° NNW 02:34:03 54° WSW 02:35:25 42° SSW
Cosmos 841 Rocket 3.5 02:34:36 10° NNW 02:39:46 63° WSW 02:41:33 39° S
GP-B 3.4 02:37:22 10° N 02:41:42 52° W 02:42:42 42° SW
SL-08 R/B 3.5 02:41:50 24° SSE 02:44:36 69° ENE 02:49:15 10° N
Cosmos 1869 Rocket 3.5 02:43:34 43° S 02:44:56 81° E 02:49:21 10° N
SL-8 R/B 3.6 02:45:29 10° WNW 02:50:18 69° SSW 02:55:04 10° SE
Meteor 2-6 Rocket 4.4 02:47:10 10° NNW 02:52:23 52° W 02:54:28 33° SSW
H-2A R/B 2.6 02:49:09 10° NNE 02:53:04 59° ESE 02:54:24 36° SSE
Cosmos 2221 Rocket 3.6 02:51:08 10° N 02:55:36 79° E 02:57:57 28° SSE
Cosmos 1437 Rocket 2.8 02:55:46 44° SSW 02:57:00 77° W 03:01:07 10° N
Cosmos 2219 3.1 02:51:53 10° NNW 02:57:34 81° WSW 03:02:04 16° SSE
USA 229 DEB 3.8 02:52:18 10° NW 02:59:32 82° WSW 03:06:57 10° SSE
USA 229 3.8 02:52:25 10° NW 02:59:39 83° WSW 03:07:05 10° SSE
Okean 1-7 3.0 02:55:28 10° NNW 02:59:50 67° W 03:01:29 36° SSW
Cosmos 1867 4.4 02:57:21 22° WSW 03:00:23 41° NW 03:05:34 10° NNE
COSMOS 2455 3.0 02:55:21 10° NW 03:01:12 54° WSW 03:04:51 23° S
Genesis I 3.2 02:57:14 10° NW 03:01:21 83° WSW 03:04:15 18° SSE
UNK 3.7 02:59:21 30° S 03:01:41 76° WSW 03:06:21 10° NNW
Cosmos 1633 4.0 03:00:25 19° SE 03:02:20 33° E 03:05:37 10° NNE
USA 234 4.1 02:56:14 10° NE 03:02:22 45° NNW 03:08:30 10° W
BREEZE-M DEB (TANK) 3.3 02:57:50 12° WSW 03:03:52 54° NNW 03:06:15 10° NE
Cosmos 1821 Rocket 4.5 02:58:06 10° NNW 03:04:05 46° W 03:07:09 27° SW
Cosmos 1703 Rocket 4.0 03:00:22 10° NNW 03:04:31 42° W 03:05:41 34° SW
Cosmos 1727 Rocket 4.1 03:08:02 20° S 03:12:33 75° E 03:18:50 10° N
Lacrosse 4 Rocket 3.4 03:11:44 14° W 03:14:14 21° NW 03:17:42 10° N
Cosmos 836 Rocket 4.5 03:08:57 10° NNW 03:14:15 73° WSW 03:18:33 16° S
IRS-1D 3.4 03:09:24 10° NNE 03:14:31 89° E 03:17:29 25° SSW
AQUA 4.0 03:10:05 10° N 03:14:48 62° WNW 03:17:10 28° SW
Cosmos 2297 Rocket 2.7 03:13:54 10° NNW 03:19:31 62° ENE 03:25:06 10° SE
Cosmos 1354 Rocket 4.1 03:21:11 26° SW 03:24:07 65° WNW 03:29:21 10° NNE
Meteor 1-27 Rocket 4.1 03:18:41 10° NNW 03:24:16 48° W 03:27:53 22° SSW
ATLAS CENTAUR R/B 1.1 03:24:32 32° SW 03:26:14 88° NW 03:30:16 10° NNE
Cosmos 2278 4.4 03:22:44 16° S 03:27:00 49° ESE 03:32:26 10° NE
Cosmos 2227 Rocket 2.3 03:22:48 10° NNW 03:28:31 80° ENE 03:34:11 10° SSE
Cosmos 44 3.8 03:25:57 23° WSW 03:28:42 50° NW 03:33:35 10° NNE
Cosmos 1733 Rocket 3.2 03:26:54 19° S 03:29:53 72° E 03:34:14 10° NNE
Lacrosse 5 2.8 03:25:17 10° NW 03:30:14 52° NE 03:35:11 10° ESE
Cosmos 44 Rocket 3.3 03:29:14 25° SW 03:32:07 76° NW 03:37:10 10° NNE
Cosmos 968 Rocket 3.5 03:28:35 21° SSW 03:32:08 84° ESE 03:37:25 10° NNE
IRS-1C 4.4 03:27:20 10° N 03:32:34 57° WNW 03:36:01 21° SW
ADEOS II 3.1 03:31:36 10° NNE 03:36:36 42° E 03:41:32 10° SSE
Cosmos 1656 3.8 03:34:57 18° SSW 03:39:15 73° ESE 03:44:54 10° NNE
Cosmos 1674 Rocket 3.8 03:37:05 10° N 03:41:23 67° E 03:45:40 10° SSE
Cosmos 1271 Rocket 4.5 03:39:05 10° SSE 03:42:32 29° E 03:45:58 10° NNE
Shenzhou-11 Module 3.7 03:44:12 18° S 03:44:53 19° SSE 03:47:06 10° ESE
Meteor 1-4 Rocket 3.9 03:46:08 19° WSW 03:47:42 26° WNW 03:50:53 10° NNW
Cosmos 1908 Rocket 4.5 03:45:31 10° SSE 03:49:47 48° E 03:54:03 10° NNE
CZ-2D R/B 3.4 03:48:12 10° NNE 03:52:27 88° ESE 03:55:57 14° SSW
Cosmos 1802 Rocket 4.3 03:46:26 10° N 03:52:39 68° E 03:58:46 10° SSE
CZ-2D R/B 3.1 03:49:06 10° N 03:53:51 34° WNW 03:57:40 15° SW
Cosmos 389 Rocket 3.0 03:53:16 20° SW 03:55:30 47° WNW 03:59:03 10° N
Helios 1A Rocket 3.0 03:51:55 10° NNE 03:55:58 79° ESE 03:59:42 12° S
SL-24 R/B - RUBIN 2 3.6 03:53:19 10° NNW 03:57:42 84° NE 04:02:14 10° SE
Okean 1 3.7 03:54:13 10° N 03:58:10 64° E 04:02:05 10° SSE
Meteor 1-20 Rocket 4.3 03:53:00 11° S 03:58:27 89° W 04:04:16 10° N
ARIANE 5 R/B 2.9 03:54:21 10° N 03:59:10 48° WNW 04:03:07 15° SW
Cosmos 192 4.3 03:56:22 10° NNW 04:01:18 67° WSW 04:06:12 10° S
Cosmos 2061 Rocket 4.1 03:57:17 10° N 04:03:34 81° E 04:09:52 10° S
UNKNOWN OBJECT B 2.9 03:59:43 10° N 04:03:44 70° WNW 04:07:20 13° SSW
GPS 2-04 Rocket1 3.7 04:01:20 16° SW 04:04:01 32° S 04:07:40 10° ESE
Cosmos 2082 3.6 04:00:04 10° NNW 04:05:42 71° WSW 04:11:17 10° SSE
Cosmos 1459 Rocket 4.0 03:59:56 10° N 04:06:19 80° W 04:12:39 10° S
Cosmos 773 Rocket 4.3 04:04:23 10° NNW 04:09:41 73° ENE 04:14:58 10° SSE
NOSS 7 (E) 4.3 04:07:50 15° SSW 04:10:21 69° SE 04:13:21 10° NE
SL-16 R/B 3.7 04:06:35 13° SW 04:10:21 23° W 04:15:04 10° NW
Resurs 1-4 Rocket 3.5 04:07:46 10° NNW 04:11:57 24° WNW 04:16:05 10° WSW
NOSS 3-1 (C) 4.3 04:06:19 10° NW 04:13:43 50° WSW 04:21:50 10° S
SAR-Lupe-2 3.9 04:10:39 10° S 04:14:03 44° W 04:17:31 10° NNW
Cosmos 2100 Rocket 4.1 04:09:18 10° NNW 04:15:24 63° W 04:21:32 10° S
USA 102 4.0 04:12:22 10° SSE 04:15:30 76° ENE 04:19:35 10° NNW
ATLAS 2A CENTAUR R/B 4.2 04:08:34 10° WSW 04:19:09 29° S 04:25:02 10° SE
Cosmos 1697 Rocket 2.7 04:13:35 10° SSW 04:19:13 85° WNW 04:24:56 10° NNE
Cosmos 1812 4.3 04:20:14 10° NW 04:23:06 20° W 04:25:51 10° SW
NOSS 7 (D) 4.4 04:22:58 10° SSW 04:26:26 81° SE 04:29:37 10° NE
Okean 3 4.1 04:23:20 10° NNW 04:27:13 37° W 04:31:06 10° SSW
PSLV R/B 4.4 04:23:01 10° NNE 04:27:18 51° E 04:31:34 10° S
Meteor 1-18 Rocket 4.5 04:24:58 10° NNW 04:30:23 49° W 04:35:43 10° SSW
Okean O Rocket 4.2 04:27:23 10° NE 04:30:41 20° E 04:33:58 10° SE
Cosmos 1602 3.7 04:29:33 10° SSW 04:33:23 68° W 04:37:13 10° N
Lacrosse 5 rocket 2.7 04:30:37 10° SSW 04:34:37 36° SE 04:38:48 10° ENE
Cosmos 2123 Rocket 4.0 04:36:33 10° SSW 04:42:43 78° W 04:48:56 10° N
SeaSat 1 4.0 04:39:08 10° SE 04:43:45 42° NE 04:48:24 10° NNW
Sich 1 Rocket 3.7 04:39:41 10° SSW 04:44:05 63° W 04:48:28 10° N
SL-16 R/B 4.0 04:41:02 10° SSE 04:45:53 30° ESE 04:50:46 10° NE
Meteor 1-19 Rocket 4.2 04:40:25 10° NNW 04:45:56 73° W 04:51:24 10° S
Cosmos 1980 Rocket 2.3 04:41:22 10° SSW 04:46:59 87° WNW 04:52:40 10° NNE
